{"data":{"norad_id":61641,"intl_designator":"2024-191W","name":"STARLINK-32327","alt_names":[],"object_type":"PAYLOAD","status":"ACTIVE","operator":null,"country":"US","launch_date":"2024-10-23","launch_site_code":"AFETR","launch_vehicle":null,"mission":null,"orbit_class":"UNKNOWN","rcs_meters":null,"size_class":null,"mass_kg":null,"dimensions":null,"purposes":["comms"],"wikipedia_slug":null,"has_3d_model":false,"image_url":null,"decayed_at":null,"tle_current":{"epoch":"2026-09-21T00:47:30.257376Z","epoch_age_seconds":145963,"freshness":"FRESH","line1":"1 61641U 24191W   26264.03298909 -.00000097  00000+0  59958-5 0  9992","line2":"2 61641  43.0029 131.1316 0001230 279.2640  80.8072 15.27575073107410","mean_motion":15.27575073,"eccentricity":0.000123,"inclination_deg":43.0029,"raan_deg":131.1316,"arg_perigee_deg":279.264,"mean_anomaly_deg":80.8072,"bstar":5.9958e-6,"rev_number":10741,"period_min":94.267052759115,"perigee_km":482.21992158532,"apogee_km":483.90777699425,"semimajor_km":6861.2008492898,"source":"CELESTRAK","updated_at":"2026-09-22T09:00:49.398949Z"}}}